Regional Weather Roundup
Issued by NWS

Home | Current Version | Previous Version | Graphics & Text | Print | Product List | Glossary On
Versions: 1 2 3 4 5 6 7 8 9 10 11 12 13 14 15 16 17 18 19 20 21 22 23 24 25 26 27 28 29 30 31 32 33 34 35 36 37 38 39 40 41 42 43 44 45 46 47 48 49 50
629
ASUS44 KLIX 012110
RWRLA
LOUISIANA WEATHER ROUNDUP
NATIONAL WEATHER SERVICE NEW ORLEANS LA
300 PM CST SUN MAR 01 2015

NOTE: "FAIR" INDICATES FEW OR NO CLOUDS BELOW 12,000 FEET WITH NO
      SIGNIFICANT WEATHER AND/OR OBSTRUCTIONS TO VISIBILITY.
      SKY/WX - SKY CONDITION AND SIGNIFICANT WEATHER.
      TMP - AIR TEMPERATURE.    DP   - DEWPOINT TEMPERATURE.
      RH  - RELATIVE HUMIDITY.  PRES - PRESSURE.
      HX  - HEAT INDEX.         WCI  - WIND CHILL INDEX.

*  THESE STATIONS ARE NOT NWS OR FAA STATIONS AND ARE NOT UNDER
   NWS QUALITY CONTROL.

LAZ040-048-061>063-065-066-069-012200-
SOUTHEAST LOUISIANA

CITY           SKY/WX    TMP DP  RH WIND       PRES   REMARKS
N.O. AUDUBON     N/A     64  61  90 MISG        N/A
N.O. INTL ARPT CLOUDY    66  60  81 E5        30.26S HAZE
N.O. LAKEFRONT CLOUDY    60  56  86 E12       30.27F FOG
SLIDELL        CLOUDY    63  59  87 SE7       30.27S
BATON ROUGE    CLOUDY    63  61  93 E10       30.23F FOG
BOOTHVILLE     CLOUDY    71  67  87 E10       30.25F
BELLE CHASSE   CLOUDY    67  62  84 E8        30.25F FOG
BOGALUSA*        N/A     66  58  77 SE6       30.29S
GALLIANO*      CLOUDY    73  66  77 E5        30.24S
NEW ROADS*     CLOUDY    65  61  87 E13       30.22F
GONZALES*      MOCLDY    63  61  93 E5        30.23F
HAMMOND*       CLOUDY    66  61  82 SE13      30.27F
HOUMA*         PTSUNNY   75  68  78 SE13      30.23F
PORT FOURCHON* CLEAR     68  64  88 E9        30.26S FOG

$$

LAZ041-044-053-054-012200-
SOUTHWEST LOUISIANA

CITY           SKY/WX    TMP DP  RH WIND       PRES   REMARKS
LAKE CHARLES   RAIN      69  67  93 SW13G18   30.18R FOG
LAFAYETTE      CLOUDY    75  66  73 S10G17    30.19F
PATTERSON      PTSUNNY   77  66  69 SE15G23   30.21F
SALT POINT       N/A     75  67  76 SE12      30.19F
NEW IBERIA     PTSUNNY   76  67  73 SE20G26   30.20F
CHENAULT AIRPK HVY RAIN  72  70  94 S6        30.17F

$$

LAZ027-028-012200-
CENTRAL LOUISIANA

CITY           SKY/WX    TMP DP  RH WIND       PRES   REMARKS
FORT POLK      LGT RAIN  58  58  97 N6        30.21R VSB 1/4
ALEXANDRIA INT HVY RAIN  59  59 100 NE7       30.20F FOG
ALEXANDRIA     HVY RAIN  60  58  92 NE3       30.23F FOG

$$

LAZ001-002-012200-
NORTHWEST LOUISIANA

CITY           SKY/WX    TMP DP  RH WIND       PRES   REMARKS
SHREVEPORT     FOG       41  41 100 N6        30.27R VSB 3/4
BARKSDALE AFB  LGT RAIN  41  40  99 N6        30.28R FOG
DTN SHREVEPORT LGT RAIN  40  38  93 VRB5      30.29R FOG

$$

LAZ014-016-012200-
NORTHEAST LOUISIANA

CITY           SKY/WX    TMP DP  RH WIND       PRES   REMARKS
MONROE         LGT RAIN  47  46  97 N5        30.27F FOG
TALLULAH       CLOUDY    59  57  93 CALM      30.26R

$$




USA.gov is the U.S. government's official web portal to all federal, state and local government web resources and services.